Facebook Twitter

Wetterstation Berlin-Dahlem (FU)

Messwerte
  Temperatur Wetter Niederschlag Luftdruck Wind
Mi, 05:00 Uhr 18° 0.1 mm 1011 hPa 11 km/h W
Mi, 03:00 Uhr 17° - 1010 hPa 11 km/h W
Mi, 02:00 Uhr 17° 0 mm 1010 hPa 11 km/h S
Mi, 01:00 Uhr 17° - 1010 hPa 7 km/h S
Mi, 00:00 Uhr 17° - 1010 hPa 11 km/h S
Di, 23:00 Uhr 17° 1 mm 1010 hPa 11 km/h SO
Di, 22:00 Uhr 18° - 1011 hPa 11 km/h SO
Di, 21:00 Uhr 19° - 1011 hPa 7 km/h O
Di, 20:00 Uhr 18° 7 mm 1011 hPa 11 km/h O

Böen 50 km/h
Di, 19:00 Uhr 21° - 1014 hPa 22 km/h SW
Di, 18:00 Uhr 26° - 1012 hPa 7 km/h S
Di, 17:00 Uhr 26° 0 mm 1013 hPa 7 km/h S
Di, 16:00 Uhr 27° - 1014 hPa 7 km/h S
Di, 15:00 Uhr 25° - 1014 hPa 4 km/h S
Di, 14:00 Uhr 25° 0 mm 1015 hPa 4 km/h W
Di, 13:00 Uhr 24° - 1015 hPa 4 km/h SO
Di, 12:00 Uhr 23° - 1016 hPa 4 km/h SW
Di, 11:00 Uhr 22° 0 mm 1016 hPa 4 km/h W
Di, 10:00 Uhr 22° - 1016 hPa 4 km/h SW
Di, 09:00 Uhr 20° - 1016 hPa 4 km/h SW

Alle Zeitangaben MESZ